Terminal Aerodrome Forecast
Issued by NWS Anchorage, AK

Home | Current Version | Previous Version | Text Only | Print | Product List | Glossary On
Versions: 1 2 3 4 5 6 7 8 9 10 11 12 13 14 15 16 17 18 19 20 21 22 23 24 25 26 27 28 29 30 31 32 33 34 35 36 37 38 39 40 41
000
FTAK31 PANC 170535
TAFANC
TAF
PANC 170535Z 1706/1812 14005KT P6SM -RA VCSH FEW025 BKN060 OVC070
     FM170800 34006KT P6SM VCSH BKN070 WS020/13030KT
     FM171200 34006KT P6SM -SHRA OVC060 WS012/13030KT=

USA.gov is the U.S. government's official web portal to all federal, state and local government web resources and services.